Location: Dead Woman Crossing
(43.5369°N, 106.3228°W)
Time: 23:57:54
(UTC+00:00)

Envisat - Visible Passes

Search period start: 10 June 2023 00:00
Search period end: 20 June 2023 00:00
Orbit: 763 x 765 km, 98.2° (Epoch: 10 June)

Date Brightness Start Highest point End Pass type
(mag) Time Alt. Az. Time Alt. Az. Time Alt. Az.
10 Jun 5.4 09:49:43 10° NE 09:53:12 18° E 09:56:38 10° SE visible
12 Jun 4.7 10:13:38 10° NNE 10:18:07 31° E 10:22:34 10° SSE visible
13 Jun 5.6 09:37:58 10° ENE 09:40:36 14° E 09:43:13 10° ESE visible
14 Jun 3.8 10:37:58 10° NNE 10:42:57 52° E 10:47:53 10° S visible
15 Jun 5.1 10:01:30 10° NE 10:05:35 24° E 10:09:37 10° SSE visible
16 Jun 5.8 09:27:05 10° ENE 09:27:59 10° E 09:28:54 10° E visible
17 Jun 4.3 10:25:40 10° NNE 10:30:26 40° E 10:35:12 10° SSE visible
18 Jun 5.4 09:49:29 10° NE 09:53:00 19° E 09:56:30 10° SE visible
